Location: Luxembourg
(49.6117°N, 6.1300°E)
Time: 13:00:26
(UTC+01:00)

OTV 5 (USA 277) - Pass Details

Date: 29 January 2019
Orbit: 342 x 346 km, 54.5° (Epoch: 17 February)

Event Time Altitude Azimuth Distance (km) Brightness Sun altitude
Exits shadow 05:57:44 22° 150° (SSE) 809 ? -21.8°
Maximum altitude 05:58:04 23° 139° (SE) 796 ? -21.7°
Drops below altitude 10° 06:00:25 10° 84° (E) 1,296 ? -21.3°
Sets 06:02:39 0° 69° (ENE) 2,140 ? -21.0°
